CZ-2C DEB

Satellite information

Favourite Embed

Satellite Type and Status

DEBRISIN ORBIT

Key statistics

Satellite CZ-2C DEB at a glance.

Uptime

3995

Days in orbit

Revolutions

≈ 14.8

Per day

Orbit

SSO

Sun Synchronous Orbit

Inclination

98.2

Latest

Satellite identification and parameters

Extended collection of information and parameters for CZ-2C DEB.

Object identification

Identified? True

Debris? True

Object name: CZ-2C DEB

International designator: 2014-059C

Object number (NORAD): 40263

Object ID (CCSDS): 40263

Country: PEOPLES REPUBLIC OF CHINA (PRC)

Current information (Y/N): Y

RCS size: SMALL

Orbital parameters

Period: 97.173 minutes

Inclination: 98.1902 deg

SMA: 7001.486 km

Apoapsis: 669.514 km

Periapsis: 577.187 km

RAAN: 346.6034 deg

Eccentricy: 0.0065934

Argument of periapsis: 133.6346 deg

Mean anomaly: 227.0361 deg

Mean motion: 14.81895103 rev/day

Mean motion (dot): 0.00021978 rev/day2

B* drag term: 0.0026740314 1/REarth

Two-line elements (TLE)

Creation date: Sept. 4, 2025, 10:13 a.m.

Reference frame: TEME

Reference center: EARTH

Epoch: Sept. 4, 2025, 5:44 a.m. UTC

TLE line 0: 0 CZ-2C DEB

TLE line 1: 1 40263U 14059C 25247.23924165 .00021978 00000-0 26740-2 0 9994

TLE line 2: 2 40263 98.1902 346.6034 0065934 133.6346 227.0361 14.81895103580571

Live tracking on map

Real-time ground track for satellite CZ-2C DEB.

In-orbit conjunctions

A list of the most updated potential collisions computed for object CZ-2C DEB.

Target Orbit TCA Probability of collision Miss distance Type
SAC C SSO 2025-02-11 22:13:18 0.0001939805 764.0 (m) PAYLOAD
PEGASUS R/B LEO 2024-10-26 19:10:47 0.000143328 292.0 (m) ROCKET BODY
SSETI-EXPRESS SSO 2024-09-16 21:32:57 0.0001246037 305.0 (m) PAYLOAD
PEGASUS R/B LEO 2024-07-08 05:12:22 0.000307154 538.0 (m) ROCKET BODY
HELIOS 1B SSO 2024-06-30 08:06:09 0.0003865308 173.0 (m) PAYLOAD

Associated space launch

CZ-2C DEB was lifted into orbit during the mission ‘Long March 2C | Shijian 11-07’, on board a Long March 2 space rocket.

The launch took place on Sept. 28, 2014, 5:13 a.m. from Launch Area 4 (SLS-2 / 603).

For more information about the launch, click the button.

Launch to space Long March 2C | Shijian 11-07
Long March 2C | Shijian 11-07

Agency: N/A

Status: Launch Successful

Launch date: Sept. 28, 2014, 5:13 a.m. UTC

Rocket: Long March 2

Launch pad: Launch Area 4 (SLS-2 / 603)

Location: Jiuquan Satellite Launch Center, People's Republic of China

...

Latest news about this satellite

There are no fresh news available about this satellite. Check back as we update our databases every day.


Newsletter sign-up

Weekly statistics, charts and insights to help you stay on top of the space industry.